Location: Jaworzyna Śląska
(50.9128°N, 16.4318°E)
Time: 22:47:10
(UTC+01:00)

ISS - Pass Details

Date: 26 January 2019
Orbit: 403 x 411 km, 51.6° (Epoch: 23 February)

Event Time Altitude Azimuth Distance (km) Brightness Sun altitude
Rises 19:10:55 0° 253° (WSW) 2,334 1.2 -24.4°
Reaches altitude 10° 19:13:00 10° 252° (WSW) 1,476 -0.1 -24.7°
Enters shadow 19:14:50 30° 249° (WSW) 758 -2.0 -25.0°
